Location: Stoke Bliss
(52.2667°N, 2.5167°W)
Time: 21:42:54
(UTC+00:00)

Cosmos 2154 Rocket - Pass Details

Date: 03 March 2021
Orbit: 966 x 996 km, 82.9° (Epoch: 15 April)

Event Time Altitude Azimuth Distance (km) Brightness Sun altitude
Rises 19:20:13 0° 193° (SSW) 3,657 7.1 -14.0°
Reaches altitude 10° 19:22:43 10° 194° (SSW) 2,710 6.4 -14.4°
Maximum altitude 19:28:56 78° 281° (W) 996 4.2 -15.4°
Drops below altitude 10° 19:35:10 10° 8° (N) 2,720 6.4 -16.3°
Sets 19:37:42 0° 10° (N) 3,671 7.0 -16.7°
